Weather History for Fort Lewis, WA

Change the Weather History Date:

Monday, February 25, 2013

  Actual Average Record
Temperature  
Mean Temperature 42 °F -  
Max Temperature 48 °F 49 °F 53 °F (2001)
Min Temperature 34 °F 31 °F 18 °F (2011)
Degree Days  
Heating Degree Days 23    
Moisture  
Dew Point 37 °F    
Average Humidity 85    
Maximum Humidity 93    
Minimum Humidity 51    
Precipitation  
Precipitation 0.12 in - - ()
Sea Level Pressure  
Sea Level Pressure 30.05 in    
Wind  
Wind Speed 13 mph (South)    
Max Wind Speed 23 mph    
Max Gust Speed 34 mph    
Visibility 10 miles    
Events Rain    
Averages and records for this station are not official NWS values.
T = Trace of Precipitation, MM = Missing Value Source: NWS Daily Summary

Daily Weather History Graph

Daily Weather History Graph

Search for Another Location

Airport:

Trip Planner

Search our weather history database for the weather conditions in past years. The results will help you decide how hot, cold, wet, or windy it might be!

Date:

Astronomy

Feb. 25, 2013 Rise Set
Actual Time 6:56 AM PST 5:50 PM PST
Civil Twilight 6:26 AM PST 6:21 PM PST
Nautical Twilight 5:50 AM PST 6:56 PM PST
Astronomical Twilight 5:15 AM PST 7:31 PM PST
Moon 6:14 PM PST (2/25) 6:27 AM PST (2/25)
Length of Visible Light 11h 54m
Length of Day
10h 53m
Full, 100% of the Moon is Illuminated
Feb 25
Full
Feb 25
Full
Mar 4
Last Quarter
Mar 11
New
Mar 19
First Quarter

Hourly Weather History & Observations

Time (PST) Temp. Windchill Dew Point Humidity Pressure Visibility Wind Dir Wind Speed Gust Speed Precip Events Conditions
12:30 AM 42.8 °F 35.4 °F 35.6 °F 76% 29.93 in 10.0 mi SE 15.0 mph - N/A   Light Drizzle
12:35 AM 42.8 °F 35.8 °F 37.4 °F 81% 29.93 in 10.0 mi SE 13.8 mph - N/A   Light Drizzle
12:46 AM 42.8 °F 36.2 °F 37.4 °F 81% 29.92 in 10.0 mi SSE 12.7 mph - N/A   Mostly Cloudy
12:50 AM 42.8 °F 36.2 °F 37.4 °F 81% 29.92 in 10.0 mi SSE 12.7 mph - N/A   Light Drizzle
12:58 AM 42.4 °F 35.3 °F 37.8 °F 83% 29.94 in 10.0 mi SSE 13.8 mph - 0.01 in   Light Drizzle
1:09 AM 42.8 °F 36.6 °F 37.4 °F 81% 29.91 in 10.0 mi SSE 11.5 mph - N/A   Overcast
1:31 AM 42.8 °F 38.0 °F 39.2 °F 87% 29.91 in 10.0 mi SSE 8.1 mph - N/A   Light Drizzle
1:36 AM 42.8 °F 37.0 °F 39.2 °F 87% 29.91 in 10.0 mi SSE 10.4 mph - N/A Rain Light Rain
1:58 AM 42.1 °F 37.1 °F 39.0 °F 89% 29.94 in 10.0 mi SSE 8.1 mph - 0.03 in Rain Light Rain
2:23 AM 41.0 °F 31.1 °F 39.2 °F 93% 29.92 in 10.0 mi South 23.0 mph 34.5 mph N/A   Overcast
2:28 AM 42.8 °F 34.3 °F 39.2 °F 87% 29.92 in 10.0 mi South 19.6 mph 34.5 mph N/A   Overcast
2:33 AM 41.0 °F 31.9 °F 39.2 °F 93% 29.92 in 10.0 mi SSE 19.6 mph 28.8 mph N/A   Overcast
2:43 AM 41.0 °F 34.3 °F 39.2 °F 93% 29.94 in 10.0 mi SSE 11.5 mph 27.6 mph N/A   Overcast
2:48 AM 41.0 °F 34.3 °F 39.2 °F 93% 29.94 in 10.0 mi SSE 11.5 mph 20.7 mph N/A   Overcast
2:53 AM 41.0 °F 33.9 °F 39.2 °F 93% 29.94 in 10.0 mi SSE 12.7 mph 21.9 mph N/A   Overcast
2:58 AM 41.2 °F 35.5 °F 38.8 °F 91% 29.96 in 10.0 mi SSE 9.2 mph 21.9 mph 0.03 in   Overcast
3:03 AM 41.0 °F 34.7 °F 39.2 °F 93% 29.94 in 10.0 mi SSE 10.4 mph - N/A   Overcast
3:18 AM 41.0 °F 34.7 °F 39.2 °F 93% 29.94 in 10.0 mi SSE 10.4 mph - N/A   Overcast
3:58 AM 40.6 °F 33.8 °F 38.8 °F 93% 29.98 in 10.0 mi SSE 11.5 mph - N/A   Mostly Cloudy
4:19 AM 41.0 °F 34.3 °F 39.2 °F 93% 29.96 in 10.0 mi SSE 11.5 mph - N/A   Light Drizzle
4:28 AM 41.0 °F 34.7 °F 39.2 °F 93% 29.97 in 10.0 mi SSE 10.4 mph - N/A   Mostly Cloudy
4:34 AM 41.0 °F 35.8 °F 39.2 °F 93% 29.98 in 10.0 mi SSE 8.1 mph - N/A   Light Drizzle
4:39 AM 41.0 °F 35.2 °F 39.2 °F 93% 29.98 in 10.0 mi SSE 9.2 mph - N/A   Light Drizzle
4:43 AM 41.0 °F 34.7 °F 39.2 °F 93% 29.98 in 10.0 mi SSE 10.4 mph - N/A   Scattered Clouds
4:58 AM 40.8 °F 35.0 °F 38.3 °F 91% 30.01 in 10.0 mi SSE 9.2 mph 19.6 mph 0.00 in   Mostly Cloudy
5:00 AM 41.0 °F 34.3 °F 39.2 °F 93% 29.99 in 10.0 mi SSE 11.5 mph 19.6 mph N/A Rain Light Rain
5:10 AM 41.0 °F 34.7 °F 39.2 °F 93% 29.99 in 10.0 mi SSE 10.4 mph - N/A   Light Drizzle
5:13 AM 41.0 °F 35.8 °F 39.2 °F 93% 29.99 in 10.0 mi SSE 8.1 mph - N/A   Mostly Cloudy
5:18 AM 41.0 °F 35.2 °F 39.2 °F 93% 30.00 in 10.0 mi SSE 9.2 mph - N/A   Mostly Cloudy
5:23 AM 41.0 °F 34.7 °F 39.2 °F 93% 30.00 in 10.0 mi SSE 10.4 mph - N/A   Mostly Cloudy
5:58 AM 40.5 °F 32.8 °F 38.1 °F 91% 30.03 in 10.0 mi SSE 13.8 mph - 0.00 in   Overcast
6:41 AM 39.2 °F 32.5 °F 37.4 °F 93% 30.01 in 10.0 mi SSE 10.4 mph 18.4 mph N/A Rain Light Rain
6:51 AM 39.2 °F 33.0 °F 37.4 °F 93% 30.00 in 10.0 mi SSE 9.2 mph - N/A   Light Drizzle
6:55 AM 39.2 °F 32.5 °F 37.4 °F 93% 30.00 in 10.0 mi SSE 10.4 mph - N/A   Overcast
6:57 AM 39.2 °F 31.2 °F 37.4 °F 93% 30.00 in 10.0 mi SSE 13.8 mph - N/A Rain Light Rain
6:58 AM 39.6 °F 31.7 °F 37.4 °F 92% 30.02 in 10.0 mi SSE 13.8 mph - 0.01 in Rain Light Rain
7:23 AM 39.2 °F 30.5 °F 37.4 °F 93% 30.02 in 9.0 mi SSW 16.1 mph 20.7 mph N/A Rain Light Rain
7:30 AM 39.2 °F 31.6 °F 37.4 °F 93% 30.02 in 10.0 mi SSW 12.7 mph - N/A   Mostly Cloudy
7:58 AM 39.4 °F 30.7 °F 37.0 °F 91% 30.06 in 10.0 mi South 16.1 mph 21.9 mph 0.02 in   Mostly Cloudy
8:42 AM 41.0 °F 33.9 °F 37.4 °F 87% 30.05 in 10.0 mi South 12.7 mph - N/A   Mostly Cloudy
8:52 AM 41.0 °F 34.7 °F 37.4 °F 87% 30.06 in 10.0 mi South 10.4 mph - N/A   Mostly Cloudy
8:54 AM 41.0 °F 33.9 °F 37.4 °F 87% 30.06 in 10.0 mi South 12.7 mph - N/A Rain Light Rain
8:58 AM 40.1 °F 32.4 °F 37.8 °F 91% 30.08 in 10.0 mi South 13.8 mph 21.9 mph 0.00 in Rain Light Rain
9:16 AM 41.0 °F 32.2 °F 37.4 °F 87% 30.06 in 10.0 mi South 18.4 mph 26.5 mph N/A   Mostly Cloudy
9:21 AM 41.0 °F 33.5 °F 37.4 °F 87% 30.07 in 10.0 mi South 13.8 mph 24.2 mph N/A   Scattered Clouds
9:46 AM 41.0 °F 34.3 °F 39.2 °F 93% 30.08 in 10.0 mi South 11.5 mph - N/A   Mostly Cloudy
9:58 AM 41.2 °F 34.5 °F 38.3 °F 89% 30.11 in 10.0 mi South 11.5 mph - 0.01 in   Mostly Cloudy
10:13 AM 42.8 °F 38.0 °F 39.2 °F 87% 30.10 in 7.0 mi South 8.1 mph - N/A   Overcast
10:25 AM 42.8 °F 36.2 °F 39.2 °F 87% 30.09 in 10.0 mi South 12.7 mph 17.3 mph N/A   Mostly Cloudy
10:30 AM 42.8 °F 36.2 °F 39.2 °F 87% 30.10 in 10.0 mi South 12.7 mph 17.3 mph N/A   Mostly Cloudy
10:58 AM 45.0 °F 37.6 °F 37.9 °F 76% 30.13 in 10.0 mi SSW 17.3 mph 26.5 mph 0.01 in   Mostly Cloudy
11:03 AM 44.6 °F 36.4 °F 37.4 °F 76% 30.11 in 10.0 mi SW 20.7 mph 28.8 mph N/A   Mostly Cloudy
11:04 AM 44.6 °F 36.9 °F 37.4 °F 76% 30.11 in 9.0 mi SW 18.4 mph 28.8 mph N/A   Mostly Cloudy
11:16 AM 42.8 °F 35.1 °F 35.6 °F 76% 30.11 in 10.0 mi SW 16.1 mph 34.5 mph N/A   Mostly Cloudy
11:21 AM 42.8 °F 35.8 °F 35.6 °F 76% 30.11 in 10.0 mi SW 13.8 mph 32.2 mph N/A   Scattered Clouds
11:56 AM 46.4 °F 41.9 °F 37.4 °F 71% 30.13 in 10.0 mi SW 9.2 mph 23.0 mph N/A   Partly Cloudy
12:58 PM 48.4 °F - 33.8 °F 57% 30.15 in 10.0 mi South 19.6 mph 27.6 mph N/A   Scattered Clouds
1:58 PM 48.0 °F - 30.6 °F 51% 30.17 in 10.0 mi SW 17.3 mph 26.5 mph N/A   Partly Cloudy
2:58 PM 47.3 °F - 31.5 °F 54% 30.18 in 10.0 mi SW 15.0 mph 24.2 mph N/A   Partly Cloudy
3:58 PM 45.7 °F 40.2 °F 33.1 °F 61% 30.20 in 10.0 mi SSW 11.5 mph - N/A   Partly Cloudy
4:58 PM 45.5 °F 39.6 °F 33.6 °F 63% 30.21 in 10.0 mi SSW 12.7 mph - N/A   Mostly Cloudy
5:58 PM 43.2 °F 35.0 °F 32.0 °F 65% 30.21 in 10.0 mi SSW 18.4 mph 24.2 mph N/A   Clear
6:58 PM 41.5 °F 35.4 °F 32.9 °F 71% 30.24 in 10.0 mi SSW 10.4 mph 18.4 mph N/A   Clear
7:58 PM 39.9 °F 37.8 °F 33.1 °F 77% 30.26 in 10.0 mi SSW 3.5 mph - N/A   Clear
8:58 PM 38.5 °F 34.1 °F 33.8 °F 83% 30.29 in 10.0 mi SSW 5.8 mph - N/A   Clear
9:58 PM 36.1 °F - 33.3 °F 89% 30.30 in 10.0 mi SSW 2.3 mph - N/A   Clear
10:58 PM 36.0 °F 29.6 °F 32.7 °F 88% 30.31 in 10.0 mi SE 8.1 mph - N/A   Clear
11:58 PM 34.0 °F 28.8 °F 32.2 °F 93% 30.33 in 10.0 mi SE 5.8 mph - N/A   Clear